• In Deutschland
  • Länderverzeichnis
  • Für 7 Tage
  • Wassertemperatur
  • Satellitenkarten
  • Wetterkarte
  • Widgets
  • user-avatar
    Anmelden

    Stündliche Wetter Frankfurt (Oder)

    Heute, 11 Dezember, Montag

    Zeit Temperatur Niederschläge Wind Luftdruck Luftfeuchtigkeit
    00:00 0°C° 0,3 mm 5 m/S 734 mmHg 85%
    01:00 +1°C° 0 mm 5 m/S 734 mmHg 83%
    02:00 +2°C° 0,2 mm 5 m/S 734 mmHg 83%
    03:00 +2°C° 0,2 mm 6 m/S 734 mmHg 83%
    04:00 +3°C° 0,2 mm 6 m/S 734 mmHg 83%
    05:00 +3°C° 0 mm 5 m/S 735 mmHg 84%
    06:00 +2°C° 0 mm 5 m/S 735 mmHg 85%
    07:00 +2°C° 0 mm 3 m/S 736 mmHg 90%
    08:00 +2°C° 0 mm 3 m/S 736 mmHg 90%
    09:00 +2°C° 0 mm 3 m/S 737 mmHg 89%
    10:00 +4°C° 0 mm 2 m/S 738 mmHg 88%
    11:00 +4°C° 0 mm 2 m/S 738 mmHg 87%
    12:00 +4°C° 0 mm 2 m/S 738 mmHg 86%
    13:00 +6°C° 0 mm 1 m/S 738 mmHg 86%
    14:00 +4°C° 0 mm 2 m/S 738 mmHg 87%
    15:00 +4°C° 0 mm 2 m/S 737 mmHg 89%
    16:00 +3°C° 0 mm 3 m/S 737 mmHg 91%
    17:00 +3°C° 0 mm 3 m/S 736 mmHg 91%
    18:00 +4°C° 0 mm 2 m/S 736 mmHg 91%
    19:00 +4°C° 0 mm 2 m/S 736 mmHg 91%
    20:00 +4°C° 0,2 mm 2 m/S 736 mmHg 92%
    21:00 +3°C° 0,2 mm 3 m/S 736 mmHg 92%
    22:00 +4°C° 0,2 mm 3 m/S 736 mmHg 92%
    23:00 +4°C° 0,1 mm 3 m/S 736 mmHg 92%

    Morgen, 12 Dezember, Dienstag

    Zeit Temperatur Niederschläge Wind Luftdruck Luftfeuchtigkeit
    00:00 +4°C° 0,1 mm 3 m/S 737 mmHg 92%
    01:00 +4°C° 0,1 mm 3 m/S 737 mmHg 91%
    02:00 +4°C° 0,3 mm 4 m/S 738 mmHg 90%
    03:00 +5°C° 0,3 mm 4 m/S 738 mmHg 89%
    04:00 +5°C° 0,3 mm 4 m/S 739 mmHg 88%
    05:00 +5°C° 0 mm 5 m/S 739 mmHg 83%
    06:00 +4°C° 0 mm 6 m/S 739 mmHg 79%
    07:00 +5°C° 0 mm 6 m/S 739 mmHg 75%
    08:00 +4°C° 0 mm 7 m/S 740 mmHg 73%
    09:00 +4°C° 0 mm 8 m/S 741 mmHg 71%
    10:00 +4°C° 0 mm 8 m/S 742 mmHg 70%
    11:00 +4°C° 0 mm 8 m/S 743 mmHg 71%
    12:00 +3°C° 0 mm 9 m/S 744 mmHg 72%
    13:00 +2°C° 0 mm 9 m/S 745 mmHg 73%
    14:00 +2°C° 0,1 mm 8 m/S 746 mmHg 73%
    15:00 +2°C° 0,1 mm 8 m/S 747 mmHg 72%
    16:00 +1°C° 0,1 mm 8 m/S 749 mmHg 72%
    17:00 +1°C° 0,1 mm 8 m/S 750 mmHg 73%
    18:00 +1°C° 0,1 mm 8 m/S 751 mmHg 74%
    19:00 +1°C° 0,1 mm 8 m/S 752 mmHg 75%
    20:00 0°C° 0,1 mm 7 m/S 753 mmHg 76%
    21:00 +1°C° 0,1 mm 6 m/S 754 mmHg 78%
    22:00 0°C° 0,1 mm 5 m/S 755 mmHg 79%
    23:00 0°C° 0 mm 5 m/S 755 mmHg 82%

    übermorgen, 13 Dezember, Mittwoch

    Zeit Temperatur Niederschläge Wind Luftdruck Luftfeuchtigkeit
    00:00 0°C° 0 mm 5 m/S 756 mmHg 85%
    01:00 0°C° 0 mm 4 m/S 757 mmHg 88%
    02:00 -1°C° 0 mm 4 m/S 757 mmHg 88%
    03:00 -1°C° 0 mm 4 m/S 757 mmHg 87%
    04:00 -1°C° 0 mm 4 m/S 758 mmHg 87%
    05:00 -1°C° 0 mm 4 m/S 758 mmHg 87%
    06:00 -2°C° 0 mm 4 m/S 758 mmHg 87%
    07:00 -2°C° 0 mm 4 m/S 758 mmHg 87%
    08:00 -1°C° 0 mm 5 m/S 757 mmHg 83%
    09:00 -1°C° 0 mm 5 m/S 757 mmHg 79%
    10:00 -1°C° 0 mm 6 m/S 757 mmHg 74%
    11:00 -1°C° 0 mm 6 m/S 756 mmHg 71%
    12:00 +1°C° 0 mm 6 m/S 755 mmHg 67%
    13:00 +2°C° 0 mm 6 m/S 754 mmHg 63%
    14:00 +1°C° 0 mm 6 m/S 754 mmHg 63%
    15:00 +1°C° 0 mm 6 m/S 753 mmHg 64%
    16:00 +1°C° 0 mm 6 m/S 752 mmHg 64%
    17:00 +1°C° 0,2 mm 6 m/S 751 mmHg 65%
    18:00 0°C° 0,2 mm 7 m/S 750 mmHg 65%
    19:00 0°C° 0,2 mm 7 m/S 750 mmHg 65%
    20:00 0°C° 0,4 mm 7 m/S 749 mmHg 69%
    21:00 0°C° 0,4 mm 7 m/S 749 mmHg 73%
    22:00 0°C° 0,4 mm 7 m/S 748 mmHg 77%
    23:00 +2°C° 0 mm 7 m/S 747 mmHg 78%

    14 Dezember, Donnerstag

    Zeit Temperatur Niederschläge Wind Luftdruck Luftfeuchtigkeit
    00:00 +2°C° 0 mm 6 m/S 747 mmHg 79%
    01:00 +2°C° 0 mm 6 m/S 746 mmHg 80%
    02:00 +2°C° 0,3 mm 6 m/S 745 mmHg 80%
    03:00 +3°C° 0,3 mm 6 m/S 744 mmHg 80%
    04:00 +3°C° 0,3 mm 6 m/S 743 mmHg 80%
    05:00 +3°C° 0,6 mm 6 m/S 743 mmHg 82%
    06:00 +4°C° 0,6 mm 6 m/S 742 mmHg 83%
    07:00 +4°C° 0,6 mm 6 m/S 742 mmHg 84%
    08:00 +4°C° 0,1 mm 6 m/S 742 mmHg 85%
    09:00 +5°C° 0,1 mm 5 m/S 742 mmHg 85%
    10:00 +5°C° 0,1 mm 5 m/S 742 mmHg 86%
    11:00 +5°C° 0,2 mm 5 m/S 742 mmHg 82%
    12:00 +4°C° 0,2 mm 6 m/S 742 mmHg 78%
    13:00 +5°C° 0,2 mm 6 m/S 742 mmHg 74%
    14:00 +5°C° 0 mm 5 m/S 742 mmHg 74%
    15:00 +4°C° 0 mm 4 m/S 742 mmHg 74%
    16:00 +3°C° 0 mm 3 m/S 742 mmHg 73%
    17:00 +3°C° 0 mm 3 m/S 742 mmHg 73%
    18:00 +3°C° 0 mm 4 m/S 742 mmHg 73%
    19:00 +1°C° 0 mm 4 m/S 742 mmHg 73%
    20:00 +1°C° 0 mm 4 m/S 742 mmHg 75%
    21:00 0°C° 0 mm 4 m/S 742 mmHg 76%
    22:00 0°C° 0 mm 4 m/S 742 mmHg 77%
    23:00 0°C° 0 mm 4 m/S 742 mmHg 79%

    15 Dezember, Freitag

    Zeit Temperatur Niederschläge Wind Luftdruck Luftfeuchtigkeit
    00:00 0°C° 0 mm 4 m/S 742 mmHg 80%
    01:00 0°C° 0 mm 4 m/S 742 mmHg 82%
    02:00 0°C° 0 mm 5 m/S 742 mmHg 82%
    03:00 0°C° 0 mm 5 m/S 742 mmHg 83%
    04:00 -1°C° 0 mm 5 m/S 743 mmHg 84%
    05:00 -1°C° 0 mm 5 m/S 743 mmHg 84%
    06:00 -1°C° 0 mm 5 m/S 743 mmHg 84%
    07:00 -1°C° 0 mm 5 m/S 744 mmHg 84%
    08:00 -1°C° 0 mm 5 m/S 744 mmHg 83%
    09:00 -1°C° 0 mm 5 m/S 745 mmHg 81%
    10:00 0°C° 0 mm 5 m/S 745 mmHg 80%
    11:00 0°C° 0 mm 5 m/S 745 mmHg 78%
    12:00 +1°C° 0 mm 5 m/S 745 mmHg 75%
    13:00 +2°C° 0 mm 5 m/S 745 mmHg 73%
    14:00 +1°C° 0 mm 4 m/S 745 mmHg 76%
    15:00 +1°C° 0 mm 4 m/S 745 mmHg 78%
    16:00 +1°C° 0 mm 3 m/S 745 mmHg 81%
    17:00 0°C° 0 mm 4 m/S 745 mmHg 81%
    18:00 0°C° 0 mm 4 m/S 745 mmHg 81%
    19:00 0°C° 0 mm 4 m/S 745 mmHg 80%
    20:00 0°C° 0,1 mm 4 m/S 745 mmHg 80%
    21:00 +1°C° 0,1 mm 4 m/S 745 mmHg 80%
    22:00 +1°C° 0,1 mm 4 m/S 744 mmHg 79%
    23:00 +1°C° 0,1 mm 4 m/S 745 mmHg 82%

    16 Dezember, Samstag

    Zeit Temperatur Niederschläge Wind Luftdruck Luftfeuchtigkeit
    00:00 +1°C° 0,1 mm 4 m/S 745 mmHg 84%
    01:00 0°C° 0,1 mm 4 m/S 745 mmHg 87%
    02:00 0°C° 0 mm 5 m/S 745 mmHg 86%
    03:00 0°C° 0 mm 5 m/S 746 mmHg 85%
    04:00 0°C° 0 mm 5 m/S 746 mmHg 84%
    05:00 -1°C° 0,1 mm 6 m/S 746 mmHg 83%
    06:00 +1°C° 0,1 mm 6 m/S 747 mmHg 83%
    07:00 +1°C° 0,1 mm 6 m/S 747 mmHg 83%
    08:00 +1°C° 0 mm 6 m/S 748 mmHg 82%
    09:00 +1°C° 0 mm 6 m/S 748 mmHg 82%
    10:00 +1°C° 0 mm 6 m/S 749 mmHg 82%
    11:00 +1°C° 0 mm 6 m/S 749 mmHg 80%
    12:00 +2°C° 0 mm 6 m/S 750 mmHg 78%
    13:00 +2°C° 0 mm 6 m/S 750 mmHg 77%
    14:00 +2°C° 0,1 mm 6 m/S 750 mmHg 77%
    15:00 +2°C° 0,1 mm 6 m/S 751 mmHg 77%
    16:00 +1°C° 0,1 mm 5 m/S 751 mmHg 78%
    17:00 +1°C° 0 mm 5 m/S 752 mmHg 79%
    18:00 +1°C° 0 mm 5 m/S 752 mmHg 81%
    19:00 0°C° 0 mm 5 m/S 753 mmHg 82%
    20:00 0°C° 0 mm 5 m/S 753 mmHg 83%
    21:00 0°C° 0 mm 5 m/S 753 mmHg 83%
    22:00 -1°C° 0 mm 5 m/S 754 mmHg 84%
    23:00 -1°C° 0 mm 5 m/S 754 mmHg 85%
    Mehr zeigen